Flag for U.S.A. Weather past 2 weeks in Bakersfield, California, U.S.A.

Now
51 °F

Clear.


Feels Like: 51 °F
Forecast: 42 / 61 °F
Wind: No wind

Location: Meadows Field

Current Time: Dec 18, 2014 at 10:37:15 PM

Latest Report: Dec 18, 2014 at 9:54 PM


Visibility: 10 mi

Pressure: 30.21 "Hg

Humidity: 77%

Dew point: 44 °F

Location of BakersfieldLocation

Historic Weather in Bakersfield — Graph

°F

Bakersfield temperature yesterday

Maximum temperature yesterday: 56 °F (at 2:01 PM)
Minimum temperature yesterday: 46 °F (at 11:54 PM)
Average temperature yesterday: 51 °F

Past Weeks' High & Low Weather Summary

 TemperatureHumidityPressure
High72 °F (Dec 11, 2:04 PM)97% (Dec 9, 5:54 AM)30.23 "Hg (Dec 9, 5:54 AM)
Low39 °F (Dec 14, 4:54 AM)29% (Dec 15, 3:54 PM)29.58 "Hg (Dec 11, 10:54 PM)
Average55 °F75%30.04 "Hg
* Reported Dec 3 8:54 PM — Dec 18 8:54 PM, Bakersfield, Weather by CustomWeather, © 2014

Note: Actual official high and low records may vary slightly from our data, if they occured in-between our weather recording intervals... More about our weather records

Advertising

Bakersfield weather history for previous 24 hours

 ConditionsComfort  
Time TempWeatherWind HumidityBarometerVisibility
8:54 PM
Dec 18
52 °FClear.5 mph75%30.20 "Hg10 mi
7:54 PM53 °FClear.3 mph72%30.19 "Hg10 mi
6:54 PM55 °FClear.5 mph67%30.18 "Hg10 mi
5:54 PM54 °FClear.5 mph69%30.17 "Hg10 mi
4:54 PM57 °FClear.3 mph64%30.16 "Hg10 mi
3:54 PM62 °FSunny.6 mph48%30.14 "Hg10 mi
2:54 PM62 °FSunny.8 mph44%30.14 "Hg10 mi
1:54 PM63 °FSunny.9 mph45%30.13 "Hg10 mi
12:54 PM62 °FSunny.3 mph39%30.13 "Hg10 mi
11:54 AM61 °FSunny.No wind36%30.15 "Hg10 mi
10:54 AM60 °FSunny.No wind41%30.17 "Hg10 mi
9:54 AM58 °FSunny.5 mph47%30.18 "Hg10 mi
8:54 AM51 °FSunny.3 mph63%30.17 "Hg10 mi
7:54 AM46 °FSunny.5 mph77%30.15 "Hg10 mi
6:54 AM44 °FClear.No wind79%30.14 "Hg10 mi
5:54 AM48 °FPassing clouds.5 mph71%30.12 "Hg10 mi
4:54 AM47 °FPassing clouds.6 mph74%30.11 "Hg10 mi
3:54 AM45 °FPassing clouds.6 mph82%30.12 "Hg10 mi
2:54 AM48 °FPassing clouds.6 mph74%30.12 "Hg10 mi
1:54 AM49 °FMostly cloudy.6 mph71%30.12 "Hg10 mi
12:54 AM47 °FPassing clouds.No wind80%30.13 "Hg10 mi
11:54 PM
Dec 17
46 °FClear.No wind83%30.13 "Hg10 mi
10:54 PM47 °FClear.5 mph86%30.14 "Hg10 mi
Weather by CustomWeather, © 2014

See weather overviewHow to use our weather pages